Content
SEND FEEDBACK

Daily
Averages
Monthly
Summary
Mexico

CANCUN, QUINTANA ROO


Home > North America > Mexico > Quintana Roo
Elevation: 30 feet     Latitude: 21 09N     Longitude: 086 49W

WEATHER
 
SELECT A DAY
Number of Records: 166,452;   Date Range: 1/1/95 - 10/24/14
 
SHARE

PRINT THIS DATA

[ ← Previous Day ]
WEATHER ALMANAC - JANUARY 16, 2013
[ Next Day → ]
[ °C ]   °F
Weather ElementAverageHighLow
Temperature75.7 °F82.4 °F (9:43 am)68 °F (10:42 pm)
Dewpoint68.1 °F69.8 °F (8:46 am)66.2 °F (2:46 am)
Humidity78.1 %94 % (6:42 am)62 % (9:43 am)
Barometer29.99 in30.04 in (8:46 am)29.93 in (2:46 am)
Wind Speed5.7 mph10.4 mph (9:43 am)
Weather ElementAverage
Visibility7.2 mi
Wind DirectionESE (118.7 °)

Weather ElementTotal
Precipitation---
Cooling Degree Days10.2 (Base 65)
Growing Degree Days25.2 (Base 50)
Averaged from 23 records on January 16, 2013
WEATHER CONDITIONS BREAKOUT
WIND DIRECTION BREAKOUT
WEATHER BY HOUR - JANUARY 16, 2013
[ °C ]   °F
Local TimeTemperatureDewpointHumidityBarometerVisibilityWind DirectionWind SpeedGust SpeedPrecipitationEventsConditions
1:44 AM73.4 °F68.0 °F83 %29.95 in7.0 miESE (110°)9.2 mphClear
2:46 AM73.4 °F66.2 °F78 %29.93 in7.0 miESE (110°)6.9 mphPartly Cloudy
3:45 AM73.4 °F66.2 °F78 %29.95 in7.0 miESE (110°)6.9 mphScattered Clouds
4:44 AM73.4 °F68.0 °F83 %29.96 in7.0 miESE (110°)5.8 mphScattered Clouds
5:43 AM73.4 °F68.0 °F83 %29.95 in7.0 miSE (130°)5.8 mphScattered Clouds
6:42 AM69.8 °F68.0 °F94 %30.00 in7.0 miCalmScattered Clouds
7:40 AM71.6 °F66.2 °F83 %30.01 in7.0 miNNW (330°)2.3 mphPartly Cloudy
8:46 AM80.6 °F69.8 °F70 %30.04 in7.0 miESE (120°)9.2 mphScattered Clouds
9:43 AM82.4 °F68.0 °F62 %30.03 in7.0 miSE (130°)10.4 mphScattered Clouds
10:41 AM82.4 °F69.8 °F66 %30.01 in7.0 miSE (130°)9.2 mphScattered Clouds
11:45 AM82.4 °F68.0 °F62 %30.00 in7.0 miESE (110°)9.2 mphScattered Clouds
12:44 PM82.4 °F68.0 °F62 %29.97 in7.0 miESE (110°)8.1 mphScattered Clouds
1:42 PM82.4 °F68.0 °F62 %29.96 in7.0 miESE (120°)6.9 mphScattered Clouds
2:42 PM82.4 °F69.8 °F66 %29.97 in7.0 miESE (120°)6.9 mphScattered Clouds
3:43 PM80.6 °F68.0 °F65 %29.96 in7.0 miESE (120°)9.2 mphScattered Clouds
4:43 PM78.8 °F69.8 °F74 %29.97 in7.0 miESE (110°)6.9 mphPartly Cloudy
5:43 PM77.0 °F69.8 °F78 %29.98 in8.0 miEast (90°)4.6 mphClear
6:55 PM75.2 °F69.8 °F83 %29.99 in8.0 miENE (70°)2.3 mphClear
7:46 PM71.6 °F68.0 °F88 %30.01 in8.0 miENE (70°)2.3 mphClear
8:41 PM69.8 °F68.0 °F94 %30.02 in8.0 miEast (90°)3.5 mphScattered Clouds
9:53 PM69.8 °F68.0 °F94 %30.01 in7.0 miSE (130°)2.3 mphClear
10:42 PM68.0 °F66.2 °F94 %30.02 in7.0 miNW (310°)3.5 mphScattered Clouds
11:46 PM68.0 °F66.2 °F94 %30.03 in7.0 miCalmScattered Clouds
Hourly data recorded from MMUN, located miles away from Cancun, Quintana Roo







STORIES FROM OUR PARTNERS